Location: Santaluz Observatory
(32.9930°N, 117.1510°W)
Time: 22:59:10
(UTC-07:00)

Daily predictions for brighter satellites

Satellite Brightness Start Highest point End
(mag) Time Altitude Azimuth Time Altitude Azimuth Time Altitude Azimuth
ATLAS CENTAUR Rocket 4.4 20:08:23 10° W 20:15:03 71° S 21:32:16 10° ESE
Cosmos 1743 Rocket 3.9 20:22:27 10° SSE 20:26:45 49° E 20:31:04 10° NNE
Cosmos 2221 3.1 20:25:24 10° NNW 20:29:37 61° W 20:33:51 10° S
Cosmos 1378 3.5 20:26:04 10° SSW 20:29:47 69° W 20:33:31 10° N
Cosmos 332 Rocket 3.8 20:26:15 10° NNW 20:31:08 78° ENE 20:35:59 10° SSE
Cosmos 1500 Rocket 4.1 20:28:47 10° SSE 20:32:47 37° E 20:36:49 10° NNE
Cosmos 2228 Rocket 3.4 20:29:05 10° N 20:33:28 50° E 20:37:50 10° SSE
H-2A R/B 2.7 20:29:51 10° SSE 20:33:42 77° ENE 20:37:31 10° N
CZ-2C R/B 3.0 20:32:28 10° SE 20:36:23 34° ENE 20:40:36 10° N
CZ-2D R/B 3.5 20:33:12 10° S 20:37:04 73° W 20:40:57 10° NNW
Cosmos 1655 Rocket 4.2 20:30:57 10° S 20:37:10 81° W 20:43:24 10° N
S3M 4.2 20:31:22 10° N 20:37:18 51° E 20:43:15 10° SSE
Cosmos 1437 Rocket 4.2 20:35:01 10° NNE 20:37:59 21° ENE 20:40:57 10° SE
Resurs 01 Rocket 4.2 20:37:23 10° SW 20:40:44 21° W 20:44:05 10° NW
Delta 2 Rocket 3.0 20:43:47 10° W 20:47:32 79° NNW 20:50:59 10° ENE
deb Chang Zheng 4 3.7 20:45:12 10° NNE 20:49:26 52° E 20:53:40 10° S
USA 186 2.3 20:48:02 10° S 20:50:18 40° W 20:52:36 10° NNW
OAO 2 Rocket 4.0 20:45:46 10° SW 20:50:37 37° SSE 20:55:30 10° E
Cosmos 1538 Rocket 4.1 20:46:11 10° N 20:51:31 68° ENE 20:56:51 10° SSE
Meteor 1-21 Rocket 4.1 20:50:37 10° S 20:56:09 83° E 21:01:42 10° N
Cosmos 1515 Rocket 3.5 21:00:53 10° N 21:05:18 69° E 21:09:16 12° SSE
ALOS 3.6 21:01:42 10° SSW 21:06:03 39° W 21:10:26 10° NNW
Cosmos 371 Rocket 3.6 21:01:47 10° NNW 21:06:35 68° WSW 21:11:19 10° S
Cosmos 2151 3.5 21:03:19 13° SSE 21:06:38 38° E 21:10:31 10° NNE
CZ-4 DEB 4.1 21:05:33 10° S 21:08:32 37° W 21:11:34 10° NNW
USA 229 DEB 4.3 21:02:35 10° SW 21:09:24 62° WNW 21:16:20 10° NNE
USA 229 4.3 21:02:41 10° SW 21:09:30 63° WNW 21:16:26 10° NNE
Cosmos 2292 4.3 21:07:53 10° N 21:10:54 86° W 21:13:55 13° S
Tiangong 1 0.9 21:08:02 10° SW 21:11:06 65° SSE 21:14:10 10° ENE
Cosmos 773 Rocket 4.2 21:06:15 10° N 21:11:22 57° ENE 21:15:05 19° SE
Nimbus 7 Rocket 4.3 21:11:03 10° NNE 21:16:56 79° ESE 21:22:47 10° S
Cosmos 1726 4.4 21:16:25 10° ENE 21:17:35 11° ENE 21:17:46 11° ENE
Cosmos 1441 Rocket 4.4 21:14:19 10° SSW 21:17:55 42° W 21:21:30 10° N
Cosmos 2219 3.3 21:15:43 10° S 21:21:20 59° ESE 21:26:59 10° NNE
Meteor 2-20 Rocket 4.4 21:17:21 10° S 21:23:30 81° E 21:29:40 10° N
SPOT 5 2.9 21:23:12 24° SE 21:25:44 55° ENE 21:30:21 10° N
Cosmos 1151 Rocket 3.0 21:21:56 10° N 21:26:14 67° E 21:28:42 25° SSE
Cosmos 2058 3.4 21:25:16 28° SE 21:26:46 38° E 21:30:34 10° NNE
PSLV R/B 3.6 21:27:00 37° ESE 21:27:39 44° ENE 21:30:36 10° N
Cosmos 2266 Rocket 4.0 21:21:47 10° S 21:28:08 86° W 21:34:23 10° N
Cosmos 1805 Rocket 4.1 21:27:06 27° SE 21:29:00 41° E 21:33:10 10° NNE
NOSS 3-1 (A) 3.6 21:23:41 10° S 21:29:06 45° ESE 21:34:58 10° NE
Cosmos 1437 2.7 21:31:27 23° S 21:33:23 85° W 21:36:41 10° N
Cosmos 2322 3.8 21:28:55 10° NNW 21:34:35 62° ENE 21:37:34 28° SE
Cosmos 2315 Rocket 4.2 21:29:17 10° N 21:35:20 52° E 21:38:37 26° SE
Cosmos 2322 Rocket 3.3 21:31:33 10° NW 21:36:42 38° WSW 21:41:41 11° S
Envisat 3.1 21:36:48 20° S 21:40:20 76° WSW 21:45:26 10° NNW
Cosmos 1908 3.7 21:39:38 10° NNW 21:43:29 58° W 21:45:38 24° SSW
ERS-1 Rocket 4.2 21:39:23 10° SSW 21:44:02 38° W 21:48:44 10° NNW
H-2A R/B 3.0 21:42:20 16° S 21:45:40 46° W 21:50:03 10° NNW
Cosmos 2360 Rocket 2.1 21:40:43 10° NNW 21:46:23 81° ENE 21:49:07 32° SSE
Cosmos 304 Rocket 3.7 21:41:51 10° NNW 21:46:41 79° ENE 21:48:35 37° SSE
SL-16 R/B 3.6 21:42:32 10° NW 21:47:33 33° WSW 21:52:14 11° SSW
MetOp-B 4.1 21:47:14 31° SSE 21:49:54 79° ENE 21:55:16 10° N
GPS 2-04 Rocket1 4.3 21:46:59 10° W 21:50:27 23° SSW 21:51:00 22° SSW
Cosmos 1244 Rocket 4.5 21:46:37 23° S 21:50:41 68° E 21:56:56 10° NNE
Cosmos 1674 4.4 21:47:37 10° SW 21:51:03 32° W 21:54:32 10° NNW
Cosmos 1666 Rocket 3.7 21:50:24 44° SE 21:51:21 54° E 21:55:40 10° NNE
ATLAS 2AS CENTAUR R/B 3.7 21:50:45 27° ESE 21:51:30 28° ESE 21:57:49 10° NE
Cosmos 1707 Rocket 3.9 21:47:49 10° N 21:52:00 45° E 21:52:39 42° ESE
Cosmos 2112 Rocket 3.9 21:51:29 10° NNW 21:56:45 79° ENE 21:58:39 41° SSE
Cosmos 2298 Rocket 3.9 21:54:39 23° S 21:58:01 77° ESE 22:03:21 10° NNE
Cosmos 1937 Rocket 3.8 22:00:08 43° SE 22:00:55 46° ESE 22:05:53 10° NNE
Meteor 1-11 4.2 21:58:45 26° S 22:02:09 83° E 22:07:55 10° N
Meteor 2-11 Rocket 4.4 21:59:17 10° N 22:05:24 65° E 22:07:30 41° SSE
DELTA 2 R/B (1) 3.6 22:00:44 10° WNW 22:06:17 76° NNE 22:08:22 39° E
Cosmos 1300 2.6 22:03:12 10° N 22:07:01 71° E 22:07:01 71° E
Cosmos 2227 Rocket 2.9 22:08:49 35° E 22:08:49 35° E 22:13:35 10° NE
Cosmos 1745 Rocket 4.3 22:06:59 40° SE 22:08:31 47° E 22:14:24 10° NNE
YAOGAN 6 2.7 22:09:51 62° SW 22:10:07 65° W 22:13:44 10° NNW
Cosmos 990 Rocket 4.5 22:13:45 40° E 22:13:45 40° E 22:18:10 10° NNE
NOSS 3-1 (C) 4.0 22:10:33 10° SW 22:16:13 56° NW 22:22:26 10° NNE
Terra 2.8 22:17:55 32° ENE 22:17:59 32° ENE 22:22:12 10° N
H-2A R/B 2.6 22:19:46 41° E 22:20:25 42° ENE 22:25:29 10° N
SL-23 DEB 4.1 22:20:01 10° NW 22:23:46 55° N 22:23:46 55° N
Cosmos 2333 Rocket 3.4 22:19:23 10° N 22:24:18 28° ENE 22:25:14 27° ENE
Cosmos 1455 4.2 22:26:31 10° NNE 22:28:13 20° NE 22:28:13 20° NE
Delta 2 Rocket 4.1 22:26:45 10° WNW 22:29:16 39° NW 22:29:16 39° NW
SPOT 1/Viking Rocket 3.9 22:31:25 44° SSW 22:32:41 56° W 22:37:45 10° NNW
Cosmos 1386 Rocket 4.4 22:34:40 55° ESE 22:35:10 57° E 22:41:02 10° NNE
OAO 2 Rocket 3.3 22:29:57 10° WSW 22:35:17 89° N 22:36:15 61° ENE
Cosmos 2297 Rocket 2.9 22:36:45 38° ENE 22:36:45 38° ENE 22:40:58 10° NE
COSMOS 2428 2.6 22:30:27 10° NNW 22:36:08 80° WSW 22:37:03 63° S
CZ-4C R/B 4.3 22:38:19 39° N 22:38:19 39° N 22:40:37 10° N
Cosmos 2242 Rocket 3.6 22:34:55 10° N 22:39:10 79° NNW 22:39:10 79° NNW
ARGOS 3.5 22:41:19 47° SW 22:42:27 56° W 22:47:45 10° NNW
Cosmos 1898 Rocket 4.4 22:39:32 22° SW 22:42:31 45° WNW 22:47:29 10° N
DELTA 2 DEB (DPAF) 4.3 22:47:23 68° WNW 22:47:23 68° WNW 22:51:34 10° NNW
CARTOSAT-1 4.0 22:48:24 56° NNE 22:48:24 56° NNE 22:51:55 10° N
Tiangong 1 3.8 22:45:23 10° WNW 22:47:01 19° NW 22:47:01 19° NW
Cosmos 2219 Rocket 2.2 22:42:30 10° NNW 22:48:03 61° ENE 22:48:13 60° ENE
Sich 1 4.5 22:48:19 29° WSW 22:49:23 33° W 22:53:22 10° NNW
SL-08 RB Rocket 4.4 22:51:00 46° W 22:51:00 46° W 22:55:15 10° NNW
Cosmos 1633 Rocket 4.5 22:51:00 30° WSW 22:51:52 32° W 22:55:49 10° NNW
Cosmos 1726 3.8 22:49:37 10° NNW 22:52:27 31° WNW 22:52:27 31° WNW
FALCON 9 R/B 3.7 22:34:22 10° W 22:59:24 82° N 23:03:14 31° E
Lacrosse 4 Rocket 4.0 22:59:18 10° NNE 23:00:59 13° NE 23:00:59 13° NE
Cosmos 1271 Rocket 4.3 22:59:34 10° NNW 23:02:06 33° NW 23:02:06 33° NW
Cosmos 1980 3.9 22:59:51 10° NNW 23:05:12 60° NE 23:05:12 60° NE
DMSP B5D2-2 4.4 23:04:08 10° N 23:09:15 58° WNW 23:09:39 56° W
Cosmos 2082 4.2 23:16:22 50° WSW 23:17:17 56° WNW 23:22:55 10° NNE
Cosmos 2237 Rocket 2.3 23:12:36 10° NNW 23:17:50 68° NNE 23:17:50 68° NNE
COSMOS 2455 3.6 23:27:08 10° N 23:32:41 41° NE 23:32:41 41° NE
ATLAS 2AS CENTAUR R/B 3.5 23:38:04 29° WSW 23:41:58 55° NW 23:49:48 10° NNE
Cosmos 2227 Rocket 3.9 23:50:34 22° W 23:52:32 26° WNW 23:57:15 10° N
Terra 3.9 23:56:48 19° WNW 23:56:48 19° WNW 23:59:13 10° NW
